Location: A�n Tadlesse
(35.0351°N, 0.5353°E)
Time: 00:10:52
(UTC+00:00)

Cosmos 1300 - Pass Details

Date: 21 October 2019
Orbit: 511 x 515 km, 82.5° (Epoch: 21 November)

Event Time Altitude Azimuth Distance (km) Brightness Sun altitude
Rises 17:44:40 0° 150° (SSE) 2,617 6.1 -6.6°
Reaches altitude 10° 17:47:21 10° 130° (SE) 1,736 5.0 -7.1°
Maximum altitude 17:49:51 17° 88° (E) 1,357 4.2 -7.7°
Drops below altitude 10° 17:52:21 10° 47° (NE) 1,743 4.9 -8.2°
Sets 17:55:03 0° 27° (NNE) 2,634 6.0 -8.7°
